Tracking 21094 objects as of 12-Aug-2020
HD Live streaming from Space Station
objects crossing your sky now
Track the most recent launched group of Starlink satellites

CZ-4 DEB

Track CZ-4 DEB now!
10-day predictions


NORAD ID: 29043
Int'l Code: 2004-035K
Perigee: 572.9 km
Apogee: 587.4 km
Inclination: 97.7 °
Period: 96.1 minutes
Semi major axis: 6951 km
RCS: 0.0201 m2 (small)
Launch date: September 8, 2004
Source: People's Republic of China (PRC)
Launch site: Taiyaun Space Center, China (TSC)

Note: This is SATELLITE DEBRIS
aabbcc
Your satellite tracking list
Your tracking list is empty




NASA's NSSDC Master Catalog

Two Line Element Set (TLE):
1 29043U 04035K   20224.29474732 +.00000425 +00000-0 +40888-4 0  9991
2 29043 097.7081 247.7441 0010448 083.0020 277.2390 14.98023196798918
Source of the keplerian elements: AFSPC